Tracking 29528 objects as of 13-Sep-2024
HD Live streaming from Space Station
objects crossing your sky now

STARLINK-5583

Track STARLINK-5583 now!
10-day predictions
STARLINK-5583 is classified as:


NORAD ID: 55768
Int'l Code: 2023-028AD
Perigee: 577.0 km
Apogee: 581.4 km
Inclination: 70.0 °
Period: 96.1 minutes
Semi major axis: 6950 km
RCS: Unknown
Launch date: March 3, 2023
Source: United States (US)
Launch site: AIR FORCE WESTERN TEST RANGE (AFWTR)
Your satellite tracking list
Your tracking list is empty




NASA's NSSDC Master Catalog

Two Line Element Set (TLE):
1 55768U 23028AD  24256.88157328  .00000811  00000-0  75765-4 0  9991
2 55768  70.0000 153.1538 0003150 264.1103  95.9697 14.98335235 85216
Source of the keplerian elements: AFSPC